TimePST,TemperatureF,Dew PointF,Humidity,Sea Level PressureIn,VisibilityMPH,Wind Direction,Wind SpeedMPH,Gust SpeedMPH,PrecipitationIn,Events,Conditions,WindDirDegrees,DateUTC
12:52 AM,5.0,1.0,84,30.58,-9999.0,Calm,Calm,-,N/A,,Unknown,0,2013-01-21 08:52:00
1:52 AM,1.9,-2.0,83,30.58,-9999.0,SSW,4.6,-,N/A,,Unknown,200,2013-01-21 09:52:00
2:52 AM,3.0,-2.0,80,30.57,-9999.0,Calm,Calm,-,N/A,,Unknown,0,2013-01-21 10:52:00
3:52 AM,3.0,-0.9,84,30.57,-9999.0,SSE,3.5,-,N/A,,Unknown,150,2013-01-21 11:52:00
4:52 AM,1.9,-0.9,88,30.59,-9999.0,Calm,Calm,-,N/A,,Unknown,0,2013-01-21 12:52:00
5:52 AM,-0.9,-5.1,83,30.61,-9999.0,Calm,Calm,-,N/A,,Unknown,0,2013-01-21 13:52:00
6:52 AM,1.9,-0.9,88,30.60,-9999.0,Calm,Calm,-,N/A,,Unknown,0,2013-01-21 14:52:00
7:52 AM,-0.0,-2.9,88,30.62,-9999.0,Calm,Calm,-,N/A,,Unknown,0,2013-01-21 15:52:00
8:52 AM,10.0,6.1,84,30.60,-9999.0,Calm,Calm,-,N/A,,Unknown,0,2013-01-21 16:52:00
9:52 AM,12.9,9.0,84,30.60,-9999.0,Calm,Calm,-,N/A,,Unknown,0,2013-01-21 17:52:00
10:52 AM,19.0,10.9,71,30.58,-9999.0,Calm,Calm,-,N/A,,Unknown,0,2013-01-21 18:52:00
11:52 AM,25.0,10.9,55,30.51,-9999.0,Variable,3.5,-,N/A,,Unknown,0,2013-01-21 19:52:00
12:52 PM,28.9,12.0,49,30.48,-9999.0,NNE,5.8,-,N/A,,Unknown,30,2013-01-21 20:52:00
1:52 PM,25.0,12.9,60,30.48,-9999.0,NE,10.4,-,N/A,,Unknown,40,2013-01-21 21:52:00
2:52 PM,32.0,17.1,54,30.43,-9999.0,Variable,3.5,-,N/A,,Unknown,0,2013-01-21 22:52:00
3:52 PM,30.9,17.1,57,30.43,-9999.0,SE,13.8,-,N/A,,Unknown,130,2013-01-21 23:52:00
4:52 PM,21.0,12.0,68,30.47,-9999.0,NNE,5.8,-,N/A,,Unknown,30,2013-01-22 00:52:00
5:52 PM,24.1,12.9,62,30.47,-9999.0,SE,13.8,-,N/A,,Unknown,140,2013-01-22 01:52:00
6:52 PM,10.9,5.0,77,30.51,-9999.0,Calm,Calm,-,N/A,,Unknown,0,2013-01-22 02:52:00
7:52 PM,12.9,7.0,77,30.51,-9999.0,ENE,12.7,-,N/A,,Unknown,70,2013-01-22 03:52:00
8:52 PM,7.0,3.0,84,30.50,-9999.0,Calm,Calm,-,N/A,,Unknown,0,2013-01-22 04:52:00
9:52 PM,5.0,1.0,84,30.51,-9999.0,Calm,Calm,-,N/A,,Unknown,0,2013-01-22 05:52:00
10:52 PM,5.0,-0.0,80,30.49,-9999.0,SSW,3.5,-,N/A,,Unknown,210,2013-01-22 06:52:00
11:52 PM,3.9,-0.0,84,30.48,-9999.0,Calm,Calm,-,N/A,,Unknown,0,2013-01-22 07:52:00